map of CKS home
CKS - Airport
Location
City:  Carajįs, Parį, Brazil
Near (Alt.):Parauapebas
ICAO:SBCJ
IATA:CKS

Details
Type:Airport (Aerodrome, Airfield)
Latitude:6°07'04"S (-6.117805)
Longitude:50°00'12"W (-50.003471)
Datum:WGS 1984
Elevation:2038 ft (621 m)
Variation:20.44°W (WMM2015 magnetic declination)
-0.06° annual change
Runways:1
Longest:6562 × 148 ft (2000 × 45 m), paved

Time
Time Zone:UTC-3
Local Time:

Weather
METAR:SBCJ 161300Z 02004KT 5000 BR OVC004 24/21 Q1016
TAF:SBCJ 161000Z 1612/1624 06003KT 9999 SCT015 TN24/1612Z TX28/1617Z
BECMG 1615/1617 03005KT SCT025 FEW030TCU PROB30 1619/1621 TS SCT020 FEW030CB
BECMG 1621/1623 00000KT FEW025
RMK PEH

Related Locations
Nearby:
Farthest:WAMS: 12212 mi / 19654 km
Miangas [Miangas Airport], SA, ID

Find:

   beyond  
but within

Other Information
Maps:
NOTAMs:
Links:
Sources:

  
  • flag of Brazil
  • flag of Parį
  

Sectional Chart

Flight Planning
at skyvector.com

Satellite Image

Google Maps Satellite view

 

Copyright © 2004-2018 Karl L. Swartz. All rights reserved.
The Great Circle Mapper name and logo are trademarks of the Great Circle Mapper.
All other trademarks mentioned herein belong to their respective owners.
Please see credits for attibutions and further copyright information.

  Follow gcmap on Facebook Follow gcmap on Twitter Follow gcmap on Google+ GCmap on LinkedIn

hCard Microformat

Geo Microformat